EW7067 Weather Reports


Display with metric or nautical units.
time (UTC)temp
F
wind
direction
speed
MPH
gust
MPH
rain 1hr
in
rain 24hr
in
rain mn
in
humidity
%
barometer
mb
20260904160017 91 338 1.0 4.0 0.00 0.00 0.00 70 973.4
20260904155005 91 338 2.0 4.0 0.00 0.00 0.00 75 973.4
20260904154459 91 338 1.0 4.0 0.00 0.00 0.00 73 973.4
20260904153952 91 88 1.0 4.0 0.00 0.00 0.00 74 973.5
20260904153447 90 102 1.0 4.0 0.00 0.00 0.00 73 973.5
20260904152435 90 318 1.0 3.0 0.00 0.00 0.00 74 973.5
20260904151929 90 318 1.0 4.0 0.00 0.00 0.00 74 973.5
20260904151422 89 318 1.0 4.0 0.00 0.00 0.00 75 973.5
20260904150917 89 319 1.0 3.0 0.00 0.00 0.00 77 973.5
20260904150411 89 319 1.0 3.0 0.00 0.00 0.00 74 973.5
20260904145905 89 319 1.0 3.0 0.00 0.00 0.00 75 973.5
20260904145359 89 319 0.0 3.0 0.00 0.00 0.00 76 973.5
20260904144853 89 319 0.0 1.0 0.00 0.00 0.00 77 973.6
20260904144348 88 319 0.0 1.0 0.00 0.00 0.00 79 973.6
20260904143841 87 319 0.0 3.0 0.00 0.00 0.00 78 973.6
20260904143335 87 319 0.0 3.0 0.00 0.00 0.00 79 973.5
20260904142828 86 319 0.0 3.0 0.00 0.00 0.00 81 973.6
20260904141817 85 319 0.0 2.0 0.00 0.00 0.00 83 973.5
20260904140805 83 319 0.0 2.0 0.00 0.00 0.00 84 973.5
20260904135753 82 319 1.0 3.0 0.00 0.00 0.00 84 973.6
20260904135247 81 319 1.0 3.0 0.00 0.00 0.00 83 973.5
20260904134741 80 319 1.0 5.0 0.00 0.00 0.00 80 973.5
20260904134234 79 319 1.0 5.0 0.00 0.00 0.00 76 973.4
20260904133729 78 131 0.0 1.0 0.00 0.00 0.00 69 973.3
20260904133223 77 131 0.0 1.0 0.00 0.00 0.00 67 973.3
20260904132210 76 131 0.0 0.0 0.00 0.00 0.00 66 973.4
20260904131158 75 131 0.0 0.0 0.00 0.00 0.00 66 973.4
20260904130146 75 131 0.0 0.0 0.00 0.00 0.00 66 973.3
20260904124629 72 131 0.0 0.0 0.00 0.00 0.00 67 973.3
20260904124123 71 131 0.0 0.0 0.00 0.00 0.00 67 973.2
20260904123617 71 131 0.0 0.0 0.00 0.00 0.00 67 973.2
20260904123110 70 131 0.0 0.0 0.00 0.00 0.00 67 973.3
20260904122605 70 131 0.0 0.0 0.00 0.00 0.00 67 973.3
20260904122059 69 131 0.0 0.0 0.00 0.00 0.00 67 973.3
20260904121553 69 131 0.0 0.0 0.00 0.00 0.00 67 973.1
20260904121047 69 131 0.0 0.0 0.00 0.00 0.00 68 973.1
20260904120541 69 131 0.0 0.0 0.00 0.00 0.00 67 973.2
20260904120035 69 131 0.0 0.0 0.00 0.00 0.00 68 973.1
20260904115529 68 131 0.0 0.0 0.00 0.00 0.00 68 973.2
20260904115023 68 131 0.0 0.0 0.00 0.00 0.00 68 973.3
20260904114516 68 131 0.0 0.0 0.00 0.00 0.00 68 973.4
20260904114011 68 131 0.0 0.0 0.00 0.00 0.00 68 973.3
20260904113504 68 131 0.0 0.0 0.00 0.00 0.00 68 973.2
20260904112959 68 131 0.0 0.0 0.00 0.00 0.00 68 973.2
20260904112454 68 131 0.0 0.0 0.00 0.00 0.00 68 973.2
20260904111946 68 131 0.0 0.0 0.00 0.00 0.00 68 973.2
20260904111441 67 131 0.0 0.0 0.00 0.00 0.00 68 973.2
20260904110936 67 131 0.0 0.0 0.00 0.00 0.00 68 973.1
20260904105923 68 131 0.0 0.0 0.00 0.00 0.00 68 973.0
20260904105417 68 131 0.0 0.0 0.00 0.00 0.00 68 972.9
20260904104911 68 131 0.0 0.0 0.00 0.00 0.00 68 972.8
20260904104404 68 131 0.0 0.0 0.00 0.00 0.00 68 972.8
20260904103858 68 131 0.0 0.0 0.00 0.00 0.00 69 972.8
20260904103352 68 131 0.0 0.0 0.00 0.00 0.00 69 972.8
20260904102352 68 131 0.0 0.0 0.00 0.00 0.00 68 972.7
20260904101849 69 131 0.0 0.0 0.00 0.00 0.00 68 972.7
20260904101346 69 131 0.0 0.0 0.00 0.00 0.00 68 972.7
20260904100848 69 131 0.0 0.0 0.00 0.00 0.00 68 972.8
20260904095846 68 131 0.0 0.0 0.00 0.00 0.00 69 972.7
20260904095344 68 131 0.0 0.0 0.00 0.00 0.00 69 972.7
20260904094841 69 131 0.0 0.0 0.00 0.00 0.00 68 972.7
20260904093336 69 131 0.0 0.0 0.00 0.00 0.00 69 972.5
20260904092837 69 131 0.0 0.0 0.00 0.00 0.00 69 972.5
20260904092338 69 131 0.0 0.0 0.00 0.00 0.00 69 972.4
20260904091837 69 131 0.0 0.0 0.00 0.00 0.00 69 972.4
20260904091337 69 131 0.0 0.0 0.00 0.00 0.00 69 972.4
20260904090334 69 131 0.0 0.0 0.00 0.00 0.00 69 972.3
20260904085832 69 131 0.0 0.0 0.00 0.00 0.00 68 972.2
20260904085334 69 131 0.0 0.0 0.00 0.00 0.00 69 972.2
20260904084834 69 131 0.0 0.0 0.00 0.00 0.00 69 972.2
20260904084332 69 131 0.0 0.0 0.00 0.00 0.00 69 972.2
20260904083833 69 131 0.0 0.0 0.00 0.00 0.00 69 972.2
20260904083332 70 131 0.0 0.0 0.00 0.00 0.00 69 972.1
20260904082832 70 131 0.0 0.0 0.00 0.00 0.00 69 972.1
20260904081833 70 131 0.0 0.0 0.00 0.00 0.00 69 972.0
20260904080834 70 131 0.0 0.0 0.00 0.00 0.00 69 972.0
20260904080333 70 131 0.0 0.0 0.00 0.00 0.00 69 972.0
20260904075834 70 131 0.0 0.0 0.00 0.00 0.00 69 972.0
20260904075334 70 131 0.0 0.0 0.00 0.00 0.00 69 972.0
20260904074834 70 131 0.0 0.0 0.00 0.00 0.00 69 972.1
20260904074336 70 131 0.0 0.0 0.00 0.00 0.00 70 972.1
20260904073834 70 131 0.0 0.0 0.00 0.00 0.00 70 972.1
20260904073332 70 131 0.0 0.0 0.00 0.00 0.00 70 972.1
20260904072834 70 131 0.0 0.0 0.00 0.00 0.00 70 972.2
20260904072332 70 131 0.0 0.0 0.00 0.00 0.00 70 972.2
20260904071832 70 131 0.0 0.0 0.00 0.00 0.00 70 972.3
20260904071333 71 131 0.0 0.0 0.00 0.00 0.00 70 972.3
20260904070832 71 131 0.0 0.0 0.00 0.00 0.00 70 972.4
20260904065325 71 131 0.0 0.0 0.00 0.00 0.00 70 972.6
20260904063808 71 131 0.0 0.0 0.00 0.00 0.00 71 972.8
20260904063301 71 131 0.0 0.0 0.00 0.00 0.00 71 972.8
20260904062755 71 131 0.0 0.0 0.00 0.00 0.00 71 972.8
20260904061743 71 131 0.0 0.0 0.00 0.00 0.00 71 972.9
20260904061238 71 131 0.0 0.0 0.00 0.00 0.00 71 973.0
20260904060732 71 131 0.0 0.0 0.00 0.00 0.00 72 973.0
20260904055720 72 131 0.0 0.0 0.00 0.00 0.00 72 973.0
20260904055214 72 131 0.0 0.0 0.00 0.00 0.00 72 973.1
20260904054709 72 131 0.0 0.0 0.00 0.00 0.00 72 973.1
20260904053655 72 131 0.0 0.0 0.00 0.00 0.00 72 973.2
20260904052643 73 131 0.0 0.0 0.00 0.00 0.00 72 973.2
20260904052137 73 131 0.0 0.0 0.00 0.00 0.00 72 973.2
20260904051127 73 131 0.0 0.0 0.00 0.00 0.00 73 973.3
20260904050619 73 131 0.0 0.0 0.00 0.00 0.00 73 973.3
20260904050113 73 131 0.0 0.0 0.00 0.00 0.00 74 973.4
20260904045101 73 131 0.0 0.0 0.00 0.00 0.00 74 973.4
20260904044557 73 131 0.0 0.0 0.00 0.00 0.00 74 973.4
20260904044049 73 131 0.0 0.0 0.00 0.00 0.00 75 973.4
20260904043543 73 131 0.0 0.0 0.00 0.00 0.00 75 973.4
20260904042542 74 131 0.0 0.0 0.00 0.00 0.00 75 973.4
20260904042040 74 131 0.0 0.0 0.00 0.00 0.00 75 973.4
20260904041539 74 131 0.0 0.0 0.00 0.00 0.00 75 973.4
20260904041038 74 131 0.0 0.0 0.00 0.00 0.00 75 973.4
20260904035534 74 131 0.0 0.0 0.00 0.00 0.00 77 973.5
20260904034529 74 131 0.0 0.0 0.00 0.00 0.00 77 973.6
20260904033525 74 134 0.0 0.0 0.00 0.00 0.00 78 973.5
20260904033024 74 134 0.0 0.0 0.00 0.00 0.00 79 973.6
20260904032525 75 134 0.0 0.0 0.00 0.00 0.00 79 973.5
20260904032023 75 134 0.0 0.0 0.00 0.00 0.00 78 973.6
20260904031019 75 134 0.0 0.0 0.00 0.00 0.00 80 973.7
20260904030517 75 134 0.0 0.0 0.00 0.00 0.00 80 973.7
20260904025011 75 134 0.0 0.0 0.00 0.00 0.00 81 973.6
20260904024001 76 134 0.0 0.0 0.00 0.00 0.00 82 973.7
20260904023456 76 134 0.0 0.0 0.00 0.00 0.00 82 973.7
20260904022950 76 134 0.0 0.0 0.00 0.00 0.00 82 973.6
20260904022444 76 134 0.0 0.0 0.00 0.00 0.00 83 973.7
20260904021938 76 134 0.0 0.0 0.00 0.00 0.00 84 973.7
20260904021432 77 134 0.0 0.0 0.00 0.00 0.00 84 973.8
20260904020926 77 134 0.0 0.0 0.00 0.00 0.00 83 973.8
20260904020419 77 134 0.0 0.0 0.00 0.00 0.00 84 973.7
20260904015407 77 134 0.0 0.0 0.00 0.00 0.00 84 973.6
20260904014901 78 134 0.0 0.0 0.00 0.00 0.00 84 973.6
20260904013850 78 134 0.0 0.0 0.00 0.00 0.00 85 973.6
20260904013344 78 134 0.0 0.0 0.00 0.00 0.00 85 973.5
20260904012838 78 134 0.0 0.0 0.00 0.00 0.00 85 973.4
20260904012332 78 134 0.0 0.0 0.00 0.00 0.00 85 973.3
20260904011826 78 134 0.0 0.0 0.00 0.00 0.00 85 973.1
20260904011320 78 134 0.0 0.0 0.00 0.00 0.00 85 973.0
20260904010814 79 134 0.0 0.0 0.00 0.00 0.00 85 973.0
20260904010308 79 134 0.0 0.0 0.00 0.00 0.00 85 973.1
20260904005801 79 134 0.0 0.0 0.00 0.00 0.00 85 973.0
20260904005256 79 134 0.0 0.0 0.00 0.00 0.00 85 972.9
20260904004750 79 134 0.0 0.0 0.00 0.00 0.00 85 972.9
20260904004244 80 134 0.0 0.0 0.00 0.00 0.00 85 972.8
20260904003738 80 134 0.0 0.0 0.00 0.00 0.00 85 972.8
20260904003232 80 134 0.0 0.0 0.00 0.00 0.00 85 972.6
20260904002726 81 134 0.0 0.0 0.00 0.00 0.00 84 972.5
20260904001714 81 134 0.0 0.0 0.00 0.00 0.00 83 972.4
20260904000701 82 134 0.0 0.0 0.00 0.00 0.00 82 972.2
20260904000156 83 134 0.0 0.0 0.00 0.00 0.00 81 972.3
20260903235650 83 134 0.0 0.0 0.00 0.00 0.00 81 972.3
20260903234638 84 134 0.0 2.0 0.00 0.00 0.00 79 972.1
20260903234133 85 134 0.0 2.0 0.00 0.00 0.00 78 972.1
20260903233625 85 134 0.0 2.0 0.00 0.00 0.00 76 971.9
20260903232613 87 134 0.0 1.0 0.00 0.00 0.00 73 972.0
20260903232107 88 134 0.0 1.0 0.00 0.00 0.00 71 972.0
20260903231601 88 134 0.0 1.0 0.00 0.00 0.00 72 971.9
20260903231057 89 134 0.0 1.0 0.00 0.00 0.00 71 971.9
20260903230549 89 134 0.0 0.0 0.00 0.00 0.00 69 971.9
20260903225537 90 134 0.0 1.0 0.00 0.00 0.00 68 972.0
20260903225031 91 134 0.0 3.0 0.00 0.00 0.00 65 972.0
20260903224526 92 134 0.0 4.0 0.00 0.00 0.00 65 971.9
20260903224019 93 132 0.0 2.0 0.00 0.00 0.00 63 971.9
20260903223513 93 132 1.0 4.0 0.00 0.00 0.00 65 972.0
20260903223008 94 132 1.0 4.0 0.00 0.00 0.00 64 971.9
20260903222502 94 128 0.0 2.0 0.00 0.00 0.00 66 971.9
20260903221957 94 128 1.0 5.0 0.00 0.00 0.00 64 971.8
20260903221449 94 128 2.0 7.0 0.00 0.00 0.00 58 971.8
20260903220944 95 160 1.0 7.0 0.00 0.00 0.00 58 971.9
20260903220437 95 173 1.0 4.0 0.00 0.00 0.00 60 971.9
20260903215932 95 173 1.0 4.0 0.00 0.00 0.00 58 972.0
20260903213922 96 136 1.0 6.0 0.00 0.00 0.00 60 972.0
20260903213422 96 15 1.0 4.0 0.00 0.00 0.00 58 972.1
20260903212922 96 314 2.0 7.0 0.00 0.00 0.00 58 972.1
20260903212422 96 129 3.0 8.0 0.00 0.00 0.00 59 972.1
20260903211921 96 230 3.0 8.0 0.00 0.00 0.00 56 972.1
20260903211421 96 143 2.0 7.0 0.00 0.00 0.00 57 972.1
20260903210920 97 100 1.0 6.0 0.00 0.00 0.00 55 972.2
20260903205918 97 123 2.0 4.0 0.00 0.00 0.00 54 972.3
20260903204915 97 127 2.0 5.0 0.00 0.00 0.00 56 972.4
20260903204414 98 41 1.0 4.0 0.00 0.00 0.00 55 972.4
20260903203914 97 124 1.0 4.0 0.00 0.00 0.00 58 972.4
20260903203411 97 126 1.0 4.0 0.00 0.00 0.00 54 972.4
20260903202912 98 124 1.0 4.0 0.00 0.00 0.00 55 972.5
20260903202413 97 224 1.0 4.0 0.00 0.00 0.00 57 972.6
20260903201908 97 225 2.0 4.0 0.00 0.00 0.00 56 972.5
20260903201408 97 88 1.0 4.0 0.00 0.00 0.00 57 972.5
20260903200907 97 5 1.0 5.0 0.00 0.00 0.00 57 972.5
20260903200408 97 5 1.0 5.0 0.00 0.00 0.00 56 972.6
20260903195908 97 244 1.0 5.0 0.00 0.00 0.00 55 972.7
20260903194406 96 315 2.0 7.0 0.00 0.00 0.00 59 972.9
20260903193906 96 142 2.0 7.0 0.00 0.00 0.00 58 972.9
20260903192906 96 308 2.0 6.0 0.00 0.00 0.00 60 973.0
20260903192406 95 200 2.0 6.0 0.00 0.00 0.00 59 973.1
20260903191906 94 311 2.0 4.0 0.00 0.00 0.00 62 973.1
20260903191405 94 313 2.0 6.0 0.00 0.00 0.00 63 973.2
20260903190906 94 317 3.0 6.0 0.00 0.00 0.00 66 973.1
20260903190406 93 315 3.0 6.0 0.00 0.00 0.00 67 973.1
20260903185907 93 318 2.0 5.0 0.00 0.00 0.00 67 973.2
20260903185406 92 304 2.0 5.0 0.00 0.00 0.00 67 973.2
20260903184906 91 303 1.0 5.0 0.00 0.00 0.00 75 973.3
20260903184406 90 313 1.0 4.0 0.00 0.00 0.00 77 973.4
20260903183906 90 313 1.0 4.0 0.00 0.00 0.00 74 973.4
20260903183406 90 313 0.0 4.0 0.00 0.00 0.00 76 973.5
20260903182907 90 313 1.0 4.0 0.00 0.00 0.00 78 973.5
20260903182407 91 313 1.0 4.0 0.00 0.00 0.00 75 973.5
20260903180405 91 313 1.0 4.0 0.00 0.00 0.00 76 973.7
20260903175906 90 313 0.0 4.0 0.00 0.00 0.00 74 973.8
20260903175406 89 313 0.0 0.0 0.00 0.00 0.00 73 973.9
20260903174907 90 313 0.0 1.0 0.00 0.00 0.00 73 973.9
20260903174406 90 313 0.0 3.0 0.00 0.00 0.00 73 973.9
20260903173905 90 313 0.0 3.0 0.00 0.00 0.00 71 974.0
20260903172905 90 313 1.0 3.0 0.00 0.00 0.00 72 974.1
20260903172406 90 313 1.0 5.0 0.00 0.00 0.00 72 974.2
20260903171906 90 313 2.0 5.0 0.00 0.00 0.00 70 974.2
20260903171406 91 313 2.0 6.0 0.00 0.00 0.00 70 974.2
20260903170905 91 213 3.0 7.0 0.00 0.00 0.00 68 974.3
20260903170404 92 298 3.0 7.0 0.00 0.00 0.00 70 974.3
20260903165903 92 302 3.0 7.0 0.00 0.00 0.00 69 974.4
20260903165403 92 315 2.0 5.0 0.00 0.00 0.00 70 974.4
20260903164900 92 347 1.0 6.0 0.00 0.00 0.00 67 974.5
20260903164353 92 100 2.0 6.0 0.00 0.00 0.00 68 974.5
20260903163847 92 117 2.0 7.0 0.00 0.00 0.00 68 974.6
20260903163341 92 145 3.0 7.0 0.00 0.00 0.00 72 974.6
20260903162835 93 307 2.0 7.0 0.00 0.00 0.00 68 974.5
20260903162329 93 163 2.0 6.0 0.00 0.00 0.00 66 974.6
20260903161823 92 163 1.0 5.0 0.00 0.00 0.00 68 974.7
20260903161318 92 322 1.0 6.0 0.00 0.00 0.00 66 974.7